Stations météo

réclame
Mon MeteoGroup
Herstmonceux, Grande-Bretagne (3882): Température de l'air & dewpoint: 18.11.2020 12:00:00 - 24.11.2020 12:00:00 (GMT)Herstmonceux, Grande-Bretagne (3882): Température de l'air -20cm & Température de l'air -100cm: 18.11.2020 12:00:00 - 24.11.2020 12:00:00 (GMT)Herstmonceux, Grande-Bretagne (3882): Vitesse du vent & gusts: 18.11.2020 12:00:00 - 24.11.2020 12:00:00 (GMT)Herstmonceux, Grande-Bretagne (3882): Direction du vent: 18.11.2020 12:00:00 - 24.11.2020 12:00:00 (GMT)Herstmonceux, Grande-Bretagne (3882): reduced air pressure: 18.11.2020 12:00:00 - 24.11.2020 12:00:00 (GMT)Herstmonceux, Grande-Bretagne (3882): visibility: 18.11.2020 12:00:00 - 24.11.2020 12:00:00 (GMT)Herstmonceux, Grande-Bretagne (3882): Ensoleillement: 18.11.2020 12:00:00 - 24.11.2020 12:00:00 (GMT)Herstmonceux, Grande-Bretagne (3882): Quantités de précipitations: 18.11.2020 12:00:00 - 24.11.2020 12:00:00 (GMT)
Date & Time tt [°C] td [°C] tt -20cm [°C] tt -100cm [°C] ff [km/h] ff [knt] fx [km/h] fx [knt] dd ppp [hPa] vv [km] sd [min] rr [mm]
24.11.2020 12:00:00 11,2 8,4 - - 11 6 - - SSW 1018,5 35 0 0,0
24.11.2020 11:00:00 10,6 7,6 - - 16 9 - - SW 1019,5 29 0 0,0
24.11.2020 10:00:00 10,6 7,8 - - 13 7 - - SSW 1020,0 30 0 0,0
24.11.2020 09:00:00 10,3 7,8 10,9 11,7 13 7 - - SSW 1020,2 25 0 0,0
24.11.2020 08:00:00 10,3 7,4 - - 13 7 - - SSW 1020,6 40 0 0,0
24.11.2020 07:00:00 10,7 7,8 - - 15 8 - - SSW 1020,6 50 0 0,0
24.11.2020 06:00:00 10,5 8,4 - - 11 6 - - SW 1021,2 35 0 0,0
24.11.2020 05:00:00 10,8 8,8 - - 13 7 - - SW 1021,6 35 0 0,0
24.11.2020 04:00:00 10,6 8,5 - - 11 6 - - WSW 1022,1 35 0 0,0
24.11.2020 03:00:00 11,3 9,8 - - 11 6 - - WSW 1022,6 30 0 0,0
24.11.2020 02:00:00 10,5 9,8 - - 9 5 - - SW 1023,3 45 0 0,0
24.11.2020 01:00:00 10,2 9,3 - - 8 4 - - SW 1024,0 50 0 0,0
24.11.2020 00:00:00 9,1 8,2 - - 4 2 - - SSW 1024,6 45 - 0,0
23.11.2020 23:00:00 9,2 8,0 - - 5 3 - - SW 1024,9 45 0 0,0
23.11.2020 22:00:00 10,3 8,6 - - 8 4 - - WSW 1025,2 45 0 0,0
23.11.2020 21:00:00 10,0 8,6 - - 5 3 - - SW 1025,6 40 0 0,0
23.11.2020 20:00:00 9,2 8,0 - - 8 4 - - SW 1026,0 45 0 0,0
23.11.2020 19:00:00 9,0 7,8 - - 5 3 - - SSW 1026,3 50 0 0,0
23.11.2020 18:00:00 8,5 6,7 - - 5 3 - - SSW 1026,6 45 0 0,0
23.11.2020 17:00:00 8,7 7,0 - - 5 3 - - SSW 1026,9 45 0 0,0
23.11.2020 16:00:00 9,5 7,2 - - 8 4 - - SSW 1027,0 40 0 0,0
23.11.2020 15:00:00 10,0 7,5 - - 4 2 - - S 1027,0 45 6 0,0
23.11.2020 14:00:00 10,8 5,2 - - 8 4 - - S 1027,2 30 30 0,0
23.11.2020 13:00:00 11,2 4,9 - - 4 2 - - SSE 1027,8 35 6 0,0
23.11.2020 12:00:00 10,0 4,7 - - 4 2 - - S 1028,4 35 18 0,0
23.11.2020 11:00:00 11,4 6,1 - - 4 2 - - SSE 1028,6 22 30 0,0
23.11.2020 10:00:00 8,1 6,8 - - 0 0 - - N 1029,1 17 0 0,0
23.11.2020 09:00:00 6,8 6,3 11,0 11,7 0 0 - - N 1028,8 11 0 0,0
23.11.2020 08:00:00 6,1 5,7 - - 2 1 - - ENE 1028,5 15 0 0,0
23.11.2020 07:00:00 5,6 4,9 - - 4 2 - - ENE 1028,1 16 0 0,0
23.11.2020 06:00:00 6,5 5,0 - - 4 2 - - ENE 1027,9 23 0 0,0
23.11.2020 05:00:00 7,3 5,5 - - 5 3 - - NNW 1028,1 20 0 0,0
23.11.2020 04:00:00 7,1 5,8 - - 4 2 - - N 1027,8 19 0 0,0
23.11.2020 03:00:00 7,4 5,9 - - 2 1 - - W 1027,7 22 0 0,0
23.11.2020 02:00:00 7,7 5,9 - - 4 2 - - W 1027,8 23 0 0,0
23.11.2020 01:00:00 8,1 5,2 - - 4 2 - - NNW 1028,0 15 0 0,0
23.11.2020 00:00:00 8,2 5,4 - - 5 3 - - N 1027,9 19 - 0,0
22.11.2020 23:00:00 8,6 5,0 - - 4 2 - - NW 1027,7 35 0 0,0
22.11.2020 22:00:00 8,9 5,1 - - 4 2 - - NW 1027,7 30 0 0,0
22.11.2020 21:00:00 9,0 5,2 - - 4 2 - - NW 1027,5 28 0 0,0
22.11.2020 20:00:00 9,4 5,8 - - 4 2 - - WNW 1027,4 40 0 0,0
22.11.2020 19:00:00 9,7 6,2 - - 4 2 - - NW 1027,2 30 0 0,0
22.11.2020 18:00:00 10,0 7,2 - - 4 2 - - WNW 1027,0 40 0 0,0
22.11.2020 17:00:00 10,2 7,3 - - 4 2 - - W 1026,4 45 0 0,0
22.11.2020 16:00:00 10,4 8,2 - - 4 2 - - WSW 1026,1 40 0 0,0
22.11.2020 15:00:00 11,4 8,0 - - 4 2 - - WSW 1026,1 45 0 0,0
22.11.2020 14:00:00 11,7 8,8 - - 4 2 - - N 1026,4 40 0 0,0
22.11.2020 13:00:00 12,1 9,3 - - 4 2 - - W 1026,5 24 0 0,0
22.11.2020 12:00:00 12,0 9,5 - - 5 3 - - WNW 1026,9 30 0 0,0
22.11.2020 11:00:00 11,8 10,4 - - 5 3 - - NNW 1027,0 30 0 0,0
22.11.2020 10:00:00 11,2 11,0 - - 4 2 - - WNW 1027,0 30 0 0,0
22.11.2020 09:00:00 10,9 10,8 11,0 11,7 4 2 - - W 1026,8 8 0 0,2
22.11.2020 08:00:00 10,7 10,5 - - 4 2 - - W 1026,7 5 0 0,0
22.11.2020 07:00:00 10,7 10,5 - - 5 3 - - W 1026,3 4,5 0 0,0
22.11.2020 06:00:00 10,8 10,5 - - 9 5 - - W 1026,1 6 0 0,2
22.11.2020 05:00:00 11,0 10,3 - - 9 5 - - W 1026,0 4,8 0 0,0
22.11.2020 04:00:00 10,9 10,3 - - 9 5 - - W 1025,9 8 0 0,0
22.11.2020 03:00:00 11,0 10,1 - - 9 5 - - WSW 1025,9 26 0 0,0
22.11.2020 02:00:00 11,5 10,0 - - 11 6 - - W 1026,0 7 0 0,0
22.11.2020 01:00:00 11,4 10,1 - - 11 6 - - W 1025,9 18 0 0,0
22.11.2020 00:00:00 11,4 10,1 - - 15 8 - - W 1025,9 17 - 0,0
21.11.2020 23:00:00 10,9 10,0 - - 9 5 - - WSW 1026,1 14 0 0,0
21.11.2020 22:00:00 10,9 10,0 - - 9 5 - - W 1026,5 16 0 0,0
21.11.2020 21:00:00 11,3 9,6 - - 11 6 - - W 1026,8 17 0 0,0
21.11.2020 20:00:00 11,5 9,2 - - 11 6 - - W 1027,1 23 0 0,0
21.11.2020 19:00:00 11,6 9,1 - - 11 6 - - W 1027,1 23 0 0,0
21.11.2020 18:00:00 11,2 8,8 - - 8 4 - - WSW 1027,0 25 0 0,0
21.11.2020 17:00:00 11,1 8,9 - - 15 8 - - W 1027,2 21 0 0,0
21.11.2020 16:00:00 11,2 8,7 - - 15 8 - - W 1027,0 28 0 0,0
21.11.2020 15:00:00 11,8 8,3 - - 15 8 - - W 1027,1 25 0 0,0
21.11.2020 14:00:00 12,0 8,3 - - 15 8 - - W 1027,1 19 0 0,0
21.11.2020 13:00:00 12,2 7,9 - - 22 12 - - W 1027,5 28 0 0,0
21.11.2020 12:00:00 12,1 8,5 - - 18 10 - - W 1027,7 23 0 0,0
21.11.2020 11:00:00 11,5 9,2 - - 16 9 - - W 1028,4 8 0 0,0
21.11.2020 10:00:00 11,6 8,9 - - 16 9 - - W 1028,5 20 0 0,0
21.11.2020 09:00:00 10,9 9,7 10,7 11,9 11 6 - - W 1028,4 25 0 0,2
21.11.2020 08:00:00 10,3 9,6 - - 11 6 - - WSW 1028,7 20 0 0,0
21.11.2020 07:00:00 10,3 9,4 - - 16 9 - - WSW 1028,7 24 0 0,0
21.11.2020 06:00:00 10,9 9,0 - - 15 8 - - WSW 1028,7 16 0 0,0
21.11.2020 05:00:00 11,0 8,9 - - 16 9 - - WSW 1028,6 19 0 0,0
21.11.2020 04:00:00 11,3 8,5 - - 15 8 - - WSW 1028,6 24 0 0,0
21.11.2020 03:00:00 11,3 8,4 - - 16 9 - - WSW 1028,8 21 0 0,0
21.11.2020 02:00:00 11,2 8,5 - - 13 7 - - WSW 1029,4 21 0 0,0
21.11.2020 01:00:00 10,8 9,2 - - 13 7 - - WSW 1029,5 23 0 0,0
21.11.2020 00:00:00 10,5 10,2 - - 13 7 - - WSW 1030,2 5 - 0,0
20.11.2020 23:00:00 10,5 10,3 - - 13 7 - - WSW 1030,5 15 0 0,2
20.11.2020 22:00:00 10,3 10,2 - - 11 6 - - W 1030,8 13 0 0,0
20.11.2020 21:00:00 10,2 10,1 - - 11 6 - - W 1031,2 12 0 0,0
20.11.2020 20:00:00 10,1 10,0 - - 9 5 - - SW 1031,5 22 0 0,2
20.11.2020 19:00:00 10,1 10,1 - - 11 6 - - WSW 1031,7 5 0 0,4
20.11.2020 18:00:00 9,6 9,6 - - 9 5 - - WSW 1032,0 6 0 1,0
20.11.2020 17:00:00 9,1 8,9 - - 11 6 - - SW 1032,5 2,5 0 0,2
20.11.2020 16:00:00 9,0 8,1 - - 15 8 - - SW 1032,7 4,5 0 0,0
20.11.2020 15:00:00 9,0 7,2 - - 9 5 - - SW 1033,2 30 0 0,0
20.11.2020 14:00:00 9,3 6,6 - - 9 5 - - SW 1033,8 21 0 0,0
20.11.2020 13:00:00 9,3 5,9 - - 11 6 - - SW 1034,3 27 0 0,0
20.11.2020 12:00:00 8,4 6,1 - - 4 2 - - SSW 1035,2 30 0 0,0
20.11.2020 11:00:00 6,2 5,0 - - 2 1 - - NNE 1035,9 35 0 0,0
20.11.2020 10:00:00 3,4 3,2 - - 5 3 - - E 1035,9 27 0 0,2
20.11.2020 09:00:00 1,8 1,6 10,7 12,0 5 3 - - ENE 1035,7 8 0 0,0
20.11.2020 08:00:00 2,0 1,9 - - 2 1 - - WNW 1035,8 26 0 0,0
20.11.2020 07:00:00 0,2 -0,4 - - 2 1 - - N 1035,2 8 0 0,0
20.11.2020 06:00:00 1,7 1,4 - - 5 3 - - NW 1035,5 18 0 0,0
20.11.2020 05:00:00 0,8 0,0 - - 4 2 - - WNW 1035,5 13 0 0,0
20.11.2020 04:00:00 2,2 1,1 - - 4 2 - - NNW 1035,5 28 0 0,0
20.11.2020 03:00:00 1,6 0,5 - - 5 3 - - NNW 1035,7 15 0 0,0
20.11.2020 02:00:00 2,7 1,7 - - 8 4 - - NW 1036,0 19 0 0,0
20.11.2020 01:00:00 2,9 2,1 - - 8 4 - - NW 1036,1 28 0 0,0
20.11.2020 00:00:00 3,0 2,1 - - 4 2 - - WNW 1035,9 20 - 0,0
19.11.2020 23:00:00 3,4 2,3 - - 5 3 - - WNW 1036,2 20 0 0,0
19.11.2020 22:00:00 3,9 3,3 - - 8 4 - - WNW 1035,8 13 0 0,0
19.11.2020 21:00:00 4,3 3,4 - - 5 3 - - WNW 1034,5 12 0 0,0
19.11.2020 20:00:00 5,2 4,4 - - 5 3 - - NW 1033,8 22 0 0,0
19.11.2020 19:00:00 4,8 4,0 - - 4 2 - - W 1033,6 20 0 0,0
19.11.2020 18:00:00 5,9 4,6 - - 8 4 - - WNW 1033,7 23 0 0,0
19.11.2020 17:00:00 6,4 4,7 - - 9 5 - - NW 1032,9 30 0 0,0
19.11.2020 16:00:00 7,2 4,7 - - 9 5 - - NNE 1030,0 35 42 0,0
19.11.2020 15:00:00 8,2 6,9 - - 15 8 - - N 1029,9 35 0 0,2
19.11.2020 14:00:00 9,9 5,0 - - 18 10 - - NNW 1028,2 50 0 0,0
19.11.2020 13:00:00 10,7 5,3 - - 16 9 - - NW 1027,2 45 42 0,0
19.11.2020 12:00:00 10,7 6,4 - - 15 8 - - WNW 1025,9 35 24 0,0
19.11.2020 11:00:00 9,5 5,6 - - 13 7 - - W 1025,5 30 0 0,0
19.11.2020 10:00:00 9,8 5,2 - - 16 9 - - W 1024,5 30 0 0,0
19.11.2020 09:00:00 9,4 4,2 11,5 12,0 16 9 - - W 1023,5 27 0 0,0
19.11.2020 08:00:00 9,2 3,9 - - 16 9 - - W 1022,1 25 0 0,0
19.11.2020 07:00:00 8,9 3,6 - - 15 8 - - W 1021,2 24 0 0,0
19.11.2020 06:00:00 9,1 5,0 - - 18 10 46 25 W 1020,2 23 0 0,0
19.11.2020 05:00:00 10,0 5,2 - - 22 12 - - W 1019,8 16 0 0,0
19.11.2020 04:00:00 9,9 4,8 - - 22 12 55 30 W 1019,1 18 0 0,0
19.11.2020 03:00:00 10,1 5,2 - - 21 11 - - W 1019,1 16 0 0,0
19.11.2020 02:00:00 9,4 4,7 - - 21 11 - - W 1019,2 18 0 0,0
19.11.2020 01:00:00 8,9 4,2 - - 15 8 - - W 1019,5 17 0 0,0
19.11.2020 00:00:00 8,5 4,0 - - 15 8 - - W 1019,7 21 - 0,0
18.11.2020 23:00:00 8,7 4,1 - - 16 9 - - W 1019,3 17 0 0,0
18.11.2020 22:00:00 8,8 4,3 - - 11 6 - - W 1018,9 19 0 0,0
18.11.2020 21:00:00 10,1 5,2 - - 16 9 - - W 1017,9 17 0 0,0
18.11.2020 20:00:00 10,3 5,9 - - 15 8 - - WNW 1017,1 21 0 0,0
18.11.2020 19:00:00 11,6 9,7 - - 21 11 55 30 W 1016,0 45 0 0,0
18.11.2020 18:00:00 13,9 13,7 - - 21 11 - - WSW 1014,6 6 0 0,4
18.11.2020 17:00:00 14,1 13,7 - - 18 10 - - WSW 1014,2 4,5 0 0,0
18.11.2020 16:00:00 14,0 13,2 - - 18 10 - - WSW 1014,5 11 0 0,0
18.11.2020 15:00:00 13,0 11,9 - - 18 10 46 25 WSW 1014,8 3,9 0 0,0
18.11.2020 14:00:00 13,7 10,1 - - 16 9 - - SW 1015,1 16 0 0,0
18.11.2020 13:00:00 14,0 9,6 - - 16 9 - - SW 1015,8 21 0 0,0
18.11.2020 12:00:00 13,7 9,7 - - 21 11 - - SSW 1016,4 18 0 0,0

tt = Température de l'air
td = dewpoint
tt -20cm = Température de l'air -20cm
tt -100cm = Température de l'air -100cm
ff = Vitesse du vent
fx = gusts
dd = Direction du vent
ppp = reduced air pressure
vv = visibility
sd = Ensoleillement
rr = Quantités de précipitations

stations d'obs. à proximité